Time,TemperatureF,DewpointF,PressureIn,WindDirection,WindDirectionDegrees,WindSpeedMPH,WindSpeedGustMPH,Humidity,HourlyPrecipIn,Conditions,Clouds,dailyrainin,SoftwareType,DateUTC
2013-05-25 12:52:00,70.0,43.0,30.32,SE,136,0.0,-999.0,38,-99.99,,,-99.99,,2013-05-25 16:52:00,
2013-05-25 13:03:00,71.0,45.0,30.32,SE,140,0.0,-999.0,40,-99.99,,,-99.99,,2013-05-25 17:03:00,
2013-05-25 13:11:00,71.0,45.0,30.32,SE,140,0.0,-999.0,40,-99.99,,,-99.99,,2013-05-25 17:11:00,
2013-05-25 13:22:00,72.0,45.0,30.30,SE,145,1.0,-999.0,38,-99.99,,,-99.99,,2013-05-25 17:22:00,
2013-05-25 13:32:00,72.0,46.0,30.29,South,170,0.0,-999.0,40,-99.99,,,-99.99,,2013-05-25 17:32:00,
2013-05-25 13:42:00,72.0,46.0,30.29,South,170,0.0,-999.0,40,-99.99,,,-99.99,,2013-05-25 17:42:00,
2013-05-25 13:52:00,73.0,47.0,30.28,SSW,198,0.0,-999.0,40,-99.99,,,-99.99,,2013-05-25 17:52:00,
2013-05-25 14:02:00,73.0,48.0,30.27,West,261,1.0,-999.0,41,-99.99,,,-99.99,,2013-05-25 18:02:00,
2013-05-25 14:11:00,73.0,48.0,30.27,West,261,1.0,-999.0,41,-99.99,,,-99.99,,2013-05-25 18:11:00,
2013-05-25 14:21:00,74.0,51.0,30.26,South,173,1.0,-999.0,44,-99.99,,,-99.99,,2013-05-25 18:21:00,
2013-05-25 14:32:00,72.0,49.0,30.26,SE,144,1.0,-999.0,44,-99.99,,,-99.99,,2013-05-25 18:32:00,
2013-05-25 14:42:00,72.0,49.0,30.26,SE,144,1.0,-999.0,44,-99.99,,,-99.99,,2013-05-25 18:42:00,
2013-05-25 14:52:00,73.0,49.0,30.26,West,272,0.0,-999.0,43,-99.99,,,-99.99,,2013-05-25 18:52:00,
2013-05-25 15:02:00,73.0,51.0,30.25,SW,221,0.0,-999.0,46,-99.99,,,-99.99,,2013-05-25 19:02:00,
2013-05-25 15:11:00,73.0,51.0,30.25,SW,221,0.0,-999.0,46,-99.99,,,-99.99,,2013-05-25 19:11:00,
2013-05-25 15:22:00,74.0,52.0,30.25,SE,128,0.0,-999.0,46,-99.99,,,-99.99,,2013-05-25 19:22:00,
2013-05-25 15:32:00,73.0,50.0,30.24,South,191,1.0,-999.0,44,-99.99,,,-99.99,,2013-05-25 19:32:00,
2013-05-25 15:42:00,73.0,50.0,30.24,South,191,1.0,-999.0,44,-99.99,,,-99.99,,2013-05-25 19:42:00,
2013-05-25 15:52:00,74.0,50.0,30.24,SSE,164,0.0,-999.0,43,-99.99,,,-99.99,,2013-05-25 19:52:00,
2013-05-25 16:02:00,74.0,51.0,30.23,SSE,156,0.0,-999.0,45,-99.99,,,-99.99,,2013-05-25 20:02:00,
2013-05-25 16:11:00,74.0,51.0,30.23,SSE,156,0.0,-999.0,45,-99.99,,,-99.99,,2013-05-25 20:11:00,
2013-05-25 16:22:00,73.0,49.0,30.23,WSW,244,0.0,-999.0,42,-99.99,,,-99.99,,2013-05-25 20:22:00,
2013-05-25 16:32:00,73.0,50.0,30.23,SSW,213,1.0,-999.0,44,-99.99,,,-99.99,,2013-05-25 20:32:00,
2013-05-25 16:42:00,73.0,50.0,30.23,SSW,213,1.0,-999.0,44,-99.99,,,-99.99,,2013-05-25 20:42:00,
2013-05-25 16:52:00,73.0,51.0,30.22,SSE,148,1.0,-999.0,46,-99.99,,,-99.99,,2013-05-25 20:52:00,
2013-05-25 17:02:00,73.0,50.0,30.22,SE,144,0.0,-999.0,44,-99.99,,,-99.99,,2013-05-25 21:02:00,
2013-05-25 17:11:00,73.0,50.0,30.22,SE,144,0.0,-999.0,44,-99.99,,,-99.99,,2013-05-25 21:11:00,
2013-05-25 17:21:00,73.0,50.0,30.22,South,176,0.0,-999.0,44,-99.99,,,-99.99,,2013-05-25 21:21:00,
2013-05-25 17:33:00,73.0,51.0,30.22,SSE,148,1.0,-999.0,46,-99.99,,,-99.99,,2013-05-25 21:33:00,
2013-05-25 17:43:00,73.0,51.0,30.22,SSE,148,1.0,-999.0,46,-99.99,,,-99.99,,2013-05-25 21:43:00,
2013-05-25 17:53:00,73.0,53.0,30.21,SE,141,0.0,-999.0,50,-99.99,,,-99.99,,2013-05-25 21:53:00,
2013-05-25 18:03:00,73.0,53.0,30.21,SSE,163,0.0,-999.0,50,-99.99,,,-99.99,,2013-05-25 22:03:00,
2013-05-25 18:13:00,73.0,53.0,30.21,SSE,163,0.0,-999.0,50,-99.99,,,-99.99,,2013-05-25 22:13:00,
2013-05-25 18:23:00,72.0,51.0,30.21,SSE,165,0.0,-999.0,47,-99.99,,,-99.99,,2013-05-25 22:23:00,
2013-05-25 18:32:00,72.0,53.0,30.20,SSE,165,0.0,-999.0,52,-99.99,,,-99.99,,2013-05-25 22:32:00,
2013-05-25 18:42:00,72.0,53.0,30.20,SSE,165,0.0,-999.0,52,-99.99,,,-99.99,,2013-05-25 22:42:00,
2013-05-25 18:52:00,71.0,52.0,30.20,SSE,164,0.0,-999.0,51,-99.99,,,-99.99,,2013-05-25 22:52:00,
2013-05-25 19:02:00,70.0,49.0,30.21,NE,55,0.0,-999.0,47,-99.99,,,-99.99,,2013-05-25 23:02:00,
2013-05-25 19:12:00,70.0,49.0,30.21,NE,55,0.0,-999.0,47,-99.99,,,-99.99,,2013-05-25 23:12:00,
2013-05-25 19:22:00,69.0,47.0,30.21,NE,55,0.0,-999.0,45,-99.99,,,-99.99,,2013-05-25 23:22:00,
2013-05-25 19:32:00,69.0,47.0,30.21,NE,55,0.0,-999.0,45,-99.99,,,-99.99,,2013-05-25 23:32:00,
2013-05-25 19:42:00,68.0,46.0,30.21,NE,55,0.0,-999.0,46,-99.99,,,-99.99,,2013-05-25 23:42:00,
2013-05-25 19:52:00,68.0,46.0,30.21,NE,55,0.0,-999.0,46,-99.99,,,-99.99,,2013-05-25 23:52:00,
2013-05-25 20:02:00,67.0,47.0,30.21,NE,55,0.0,-999.0,49,-99.99,,,-99.99,,2013-05-26 00:02:00,
2013-05-25 20:11:00,67.0,47.0,30.21,NE,55,0.0,-999.0,49,-99.99,,,-99.99,,2013-05-26 00:11:00,
2013-05-25 20:22:00,67.0,48.0,30.22,NE,55,0.0,-999.0,51,-99.99,,,-99.99,,2013-05-26 00:22:00,
2013-05-25 20:32:00,66.0,48.0,30.22,NE,55,0.0,-999.0,53,-99.99,,,-99.99,,2013-05-26 00:32:00,
2013-05-25 20:42:00,66.0,48.0,30.22,NE,55,0.0,-999.0,53,-99.99,,,-99.99,,2013-05-26 00:42:00,
2013-05-25 20:52:00,65.0,48.0,30.22,NE,49,0.0,-999.0,55,-99.99,,,-99.99,,2013-05-26 00:52:00,
2013-05-25 21:01:00,64.0,46.0,30.22,ESE,113,0.0,-999.0,52,-99.99,,,-99.99,,2013-05-26 01:01:00,
2013-05-25 21:11:00,64.0,46.0,30.22,ESE,113,0.0,-999.0,52,-99.99,,,-99.99,,2013-05-26 01:11:00,
2013-05-25 21:21:00,64.0,43.0,30.22,ENE,78,0.0,-999.0,46,-99.99,,,-99.99,,2013-05-26 01:21:00,
2013-05-25 21:32:00,62.0,40.0,30.22,ESE,105,0.0,-999.0,45,-99.99,,,-99.99,,2013-05-26 01:32:00,
2013-05-25 21:42:00,62.0,40.0,30.22,ESE,105,0.0,-999.0,45,-99.99,,,-99.99,,2013-05-26 01:42:00,
2013-05-25 21:52:00,61.0,40.0,30.22,ESE,105,0.0,-999.0,45,-99.99,,,-99.99,,2013-05-26 01:52:00,
2013-05-25 22:02:00,60.0,39.0,30.22,ESE,105,0.0,-999.0,45,-99.99,,,-99.99,,2013-05-26 02:02:00,
2013-05-25 22:11:00,60.0,39.0,30.22,ESE,105,0.0,-999.0,45,-99.99,,,-99.99,,2013-05-26 02:11:00,
2013-05-25 22:21:00,59.0,41.0,30.22,ESE,105,0.0,-999.0,52,-99.99,,,-99.99,,2013-05-26 02:21:00,
2013-05-25 22:32:00,58.0,44.0,30.22,ESE,105,0.0,-999.0,59,-99.99,,,-99.99,,2013-05-26 02:32:00,
2013-05-25 22:42:00,58.0,44.0,30.22,ESE,105,0.0,-999.0,59,-99.99,,,-99.99,,2013-05-26 02:42:00,
2013-05-25 22:52:00,57.0,42.0,30.22,ESE,105,0.0,-999.0,58,-99.99,,,-99.99,,2013-05-26 02:52:00,
2013-05-25 23:01:00,55.0,42.0,30.22,ESE,105,0.0,-999.0,62,-99.99,,,-99.99,,2013-05-26 03:01:00,
2013-05-25 23:11:00,55.0,42.0,30.22,ESE,105,0.0,-999.0,62,-99.99,,,-99.99,,2013-05-26 03:11:00,
2013-05-25 23:22:00,54.0,43.0,30.22,NE,55,0.0,-999.0,65,-99.99,,,-99.99,,2013-05-26 03:22:00,
2013-05-25 23:33:00,54.0,43.0,30.22,NE,55,0.0,-999.0,65,-99.99,,,-99.99,,2013-05-26 03:33:00,
2013-05-25 23:43:00,54.0,43.0,30.22,NE,55,0.0,-999.0,65,-99.99,,,-99.99,,2013-05-26 03:43:00,
2013-05-25 23:53:00,53.0,44.0,30.20,NE,55,0.0,-999.0,72,-99.99,,,-99.99,,2013-05-26 03:53:00,